Temp
71 72 67 69 57 53 48 53 59 61 60 63 67 64 59 58 58 51 72 73 74 72 74 73 74 75 75 75 75 75 76 76 77 77 77 77 77 76 76 76 76 77 77 77 77 77 75 75 75
69 76 71 62 52 45 47 55 56 60 63 67 68 64 61 56 65 66 66 75 75 74 73 72 73 75 75 75 74 75 76 76 77 77 77 77 76 76 76 76 75 76 77 77 76 76 75 75 74
72 75 64 57 50 47 48 54 58 62 66 64 63 66 62 59 66 69 74 76 75 73 73 72 72 74 75 75 74 75 75 76 76 77 77 76 76 76 76 76 76 75 76 76 76 76 75 74 74
72 69 64 54 48 56 57 56 61 61 65 68 63 58 63 70 73 73 76 75 72 71 71 71 73 74 74 74 74 75 75 76 76 77 77 76 75 75 75 75 75 75 75 75 75 74 74 73 73
68 62 53 50 53 57 57 62 63 61 62 61 64 57 59 67 73 74 72 73 69 69 69 71 72 73 74 74 74 75 75 75 75 75 75 75 75 74 74 75 74 74 74 74 74 73 72 72 72
63 61 50 46 50 57 60 63 65 61 63 62 60 58 58 69 70 71 72 71 71 69 69 70 68 70 71 73 73 74 74 74 74 74 74 74 74 74 73 74 74 74 74 73 73 72 71 71 71
59 54 49 46 50 54 59 65 62 63 61 61 65 55 60 65 71 72 71 72 71 70 67 67 68 68 68 69 70 71 72 72 73 73 72 71 71 72 71 72 74 74 73 72 72 71 71 70 70
61 56 49 48 51 53 61 63 65 64 60 65 67 54 55 65 71 72 72 72 69 68 67 65 66 67 66 67 66 68 69 69 69 69 68 67 68 69 68 66 71 73 72 71 70 70 69 69 69
62 52 49 52 54 55 62 59 63 63 64 63 64 63 67 71 71 69 69 66 67 68 67 66 66 66 66 66 64 65 66 66 66 65 64 64 64 65 65 65 69 70 70 70 70 70 67 67 66
58 50 54 60 60 58 61 62 63 61 59 58 59 66 69 70 67 67 66 64 63 64 67 67 66 67 67 71 65 64 66 64 64 64 64 64 63 64 64 62 65 66 67 69 69 67 65 63 60
57 55 59 61 63 65 62 60 63 60 55 60 59 63 65 66 64 65 65 65 65 65 73 72 68 68 67 66 64 63 63 63 63 64 63 63 63 62 61 60 61 61 61 61 62 61 60 60 61
55 61 63 62 63 64 62 63 62 61 60 66 65 66 65 65 66 65 65 65 65 66 67 72 72 72 69 66 66 64 64 63 62 63 64 62 60 60 60 60 60 60 59 59 59 58 60 61 62
57 59 63 62 61 62 65 60 60 60 62 64 65 66 63 64 64 65 67 68 68 66 68 68 72 70 72 71 69 68 69 66 64 64 65 63 61 60 60 60 60 60 60 59 59 59 60 60 61
60 61 61 62 59 60 60 56 61 58 61 62 63 61 62 64 66 65 66 66 68 69 68 68 68 68 67 70 73 72 72 70 68 65 64 65 62 61 61 60 61 60 60 60 59 59 58 58 59
60 55 54 57 59 58 60 55 56 61 62 61 61 59 62 65 66 66 67 66 69 70 69 68 67 67 66 68 72 70 70 69 69 68 68 65 64 62 61 60 60 60 60 60 59 58 58 57 58
56 52 46 54 58 56 56 50 58 60 59 58 59 58 61 64 66 66 68 68 68 68 68 69 70 67 66 68 70 69 69 69 68 67 67 68 67 64 61 60 60 60 59 58 57 57 56 55 58
46 40 45 48 56 54 53 50 57 59 59 56 56 58 59 61 63 65 67 68 67 68 68 67 67 66 64 65 68 67 67 67 67 67 66 67 67 67 64 61 60 60 58 57 57 56 57 57 58
40 42 46 45 54 52 50 49 55 58 57 56 55 56 58 60 62 62 64 65 67 67 67 66 67 66 64 64 66 66 65 66 66 66 66 67 66 66 65 65 64 62 60 57 58 57 57 57 56
49 49 48 47 52 52 51 52 54 57 55 53 53 55 58 57 57 59 60 60 62 63 64 65 65 65 64 62 64 63 63 64 64 65 66 66 65 65 63 63 63 62 60 59 59 58 55 55 55
49 47 43 45 50 49 49 51 53 55 55 56 57 55 55 55 56 57 57 57 58 59 60 63 65 64 64 63 63 65 64 64 65 64 65 65 64 64 62 62 61 61 60 60 58 57 55 55 55
48 47 44 46 46 45 45 43 49 52 54 54 54 55 55 55 54 53 53 51 51 53 54 60 63 63 64 64 64 63 62 62 62 63 63 64 64 63 62 62 61 60 60 59 58 57 56 55 54
46 53 49 45 45 38 43 35 43 47 49 51 51 51 51 51 52 52 50 49 49 52 53 56 60 61 64 66 64 63 61 60 62 63 63 64 64 63 62 61 61 60 59 59 58 58 58 56 55
49 51 48 46 43 38 37 36 41 45 43 47 48 50 50 49 49 49 49 52 51 51 50 53 56 58 60 65 65 64 61 62 60 60 60 60 61 60 60 60 60 60 59 59 59 58 57 57 56
53 50 48 44 40 32 38 38 37 40 49 44 47 48 49 48 48 49 50 52 50 49 50 50 52 52 56 57 61 61 59 58 56 56 55 53 56 54 53 53 52 53 55 55 56 56 55 56 56
49 43 31 31 28 29 33 33 41 46 50 50 47 47 47 47 47 47 47 47 47 47 48 50 52 49 51 53 53 53 52 51 49 48 48 47 47 47 48 49 49 49 50 50 50 50 50 50 49
42 44 31 26 24 30 33 33 43 46 47 49 50 48 47 46 46 46 46 45 46 47 46 48 49 48 49 50 49 50 50 49 48 47 46 45 45 45 46 46 47 47 48 48 47 46 46 47 46
43 39 45 33 19 25 31 36 44 45 45 46 46 46 44 45 45 45 46 45 45 45 45 46 47 47 47 47 49 48 47 46 45 44 44 43 44 46 44 44 44 45 45 45 44 43 43 43 43
45 50 38 34 21 22 29 31 37 39 43 44 45 44 44 45 45 45 45 45 45 45 45 45 45 45 45 46 47 45 44 44 43 43 42 42 42 43 42 42 42 42 43 43 42 41 42 41 41
42 40 41 41 34 27 23 32 43 46 46 45 46 47 45 45 45 45 45 45 44 44 44 43 44 45 44 45 44 43 42 42 42 42 41 41 41 41 41 40 40 40 40 40 40 39 40 39 39
42 45 44 36 32 32 31 35 46 45 50 49 48 48 47 47 45 45 44 43 43 42 43 43 43 43 43 43 42 42 42 41 40 39 39 39 38 39 39 39 38 38 39 38 38 37 38 37 37
MSLP
1014.21 1013.74 1014.06 1014.57 1016.14 1016.57 1016.23 1015.89 1015.04 1015.37 1015.56 1015.50 1015.41 1016.02 1017.69 1018.39 1018.69 1019.55 1019.31 1019.79 1020.17 1020.84 1021.26 1021.50 1021.65 1021.77 1021.84 1022.08 1022.24 1022.38 1022.67 1022.78 1022.71 1022.76 1022.94 1022.85 1022.88 1023.12 1023.23 1023.22 1023.20 1023.10 1023.10 1023.07 1023.17 1023.20 1023.27 1023.33 1023.35
1014.26 1013.80 1014.11 1015.09 1016.28 1016.77 1016.75 1015.82 1015.85 1015.65 1015.63 1015.48 1015.93 1016.87 1017.60 1019.11 1018.95 1019.30 1019.83 1020.05 1020.05 1020.79 1021.30 1021.69 1021.92 1022.05 1022.15 1022.27 1022.52 1022.58 1022.77 1023.02 1023.05 1023.21 1023.24 1023.17 1023.21 1023.38 1023.53 1023.58 1023.58 1023.54 1023.45 1023.57 1023.68 1023.73 1023.81 1023.87 1023.83
1014.43 1014.15 1015.17 1015.65 1016.37 1016.35 1016.33 1016.21 1015.79 1015.82 1015.61 1015.76 1016.41 1017.03 1017.96 1019.34 1019.17 1019.17 1019.65 1019.94 1020.29 1020.94 1021.36 1021.87 1022.17 1022.32 1022.45 1022.43 1022.62 1022.81 1023.02 1023.28 1023.41 1023.53 1023.60 1023.62 1023.64 1023.64 1023.77 1023.92 1023.99 1024.00 1023.95 1024.04 1024.12 1024.22 1024.28 1024.39 1024.41
1014.31 1014.46 1015.30 1015.78 1016.23 1015.67 1015.61 1015.97 1015.55 1015.76 1015.77 1015.84 1016.72 1018.10 1018.50 1018.79 1018.94 1019.21 1019.67 1020.18 1020.72 1021.30 1021.61 1021.93 1022.26 1022.53 1022.63 1022.73 1022.87 1023.02 1023.30 1023.63 1023.79 1023.85 1023.90 1024.05 1024.06 1024.06 1024.11 1024.26 1024.34 1024.41 1024.48 1024.60 1024.69 1024.77 1024.83 1024.87 1024.96
1014.53 1015.35 1015.86 1016.15 1015.81 1015.38 1015.28 1015.28 1015.40 1015.82 1016.00 1016.22 1016.74 1018.57 1019.12 1019.16 1018.89 1019.46 1020.02 1020.49 1021.36 1021.68 1021.83 1021.93 1022.19 1022.52 1022.66 1022.79 1023.10 1023.36 1023.66 1023.89 1024.08 1024.19 1024.22 1024.31 1024.41 1024.47 1024.50 1024.56 1024.62 1024.74 1024.88 1025.06 1025.22 1025.25 1025.33 1025.37 1025.29
1015.15 1015.54 1016.34 1016.33 1015.93 1015.19 1015.06 1014.97 1015.20 1015.73 1016.02 1016.80 1017.60 1018.33 1019.55 1019.33 1019.46 1019.93 1020.27 1020.66 1021.26 1021.91 1022.22 1022.29 1022.53 1022.84 1023.01 1023.22 1023.43 1023.63 1023.79 1024.03 1024.29 1024.41 1024.50 1024.56 1024.67 1024.81 1024.76 1024.77 1024.84 1025.02 1025.22 1025.42 1025.53 1025.60 1025.67 1025.65 1025.60
1015.30 1016.12 1016.30 1016.25 1016.23 1015.17 1014.90 1014.63 1015.13 1015.50 1015.91 1016.38 1016.95 1018.63 1019.72 1019.70 1019.79 1020.12 1020.53 1020.73 1021.12 1021.75 1022.51 1022.80 1022.92 1023.12 1023.36 1023.54 1023.68 1023.81 1024.01 1024.37 1024.51 1024.55 1024.79 1024.88 1025.01 1025.16 1025.09 1025.14 1025.16 1025.33 1025.50 1025.69 1025.86 1026.00 1026.09 1026.06 1026.00
1015.16 1015.98 1016.15 1016.03 1016.01 1015.29 1014.89 1014.81 1015.06 1015.26 1016.09 1015.99 1016.75 1018.43 1019.44 1019.41 1019.52 1020.28 1020.89 1021.17 1021.39 1021.86 1022.44 1022.93 1023.14 1023.32 1023.62 1023.78 1023.90 1024.09 1024.42 1024.67 1024.79 1024.94 1025.20 1025.30 1025.38 1025.42 1025.53 1025.57 1025.49 1025.60 1025.78 1026.03 1026.18 1026.31 1026.33 1026.31 1026.29
1014.95 1015.75 1016.00 1015.71 1015.65 1015.19 1014.94 1015.13 1015.19 1015.39 1016.10 1016.77 1017.07 1017.46 1017.82 1018.84 1019.33 1020.25 1021.18 1021.68 1021.90 1022.16 1022.45 1022.84 1023.16 1023.47 1023.66 1023.88 1024.13 1024.30 1024.56 1024.71 1024.92 1025.13 1025.32 1025.47 1025.62 1025.73 1025.84 1025.81 1025.79 1025.95 1026.13 1026.28 1026.42 1026.55 1026.71 1026.69 1026.61
1015.14 1015.63 1015.44 1014.98 1014.60 1014.90 1014.93 1015.08 1015.33 1016.04 1016.74 1017.76 1017.92 1017.90 1018.44 1019.02 1019.54 1020.12 1020.92 1021.89 1022.22 1022.40 1022.56 1022.75 1023.13 1023.40 1023.68 1023.90 1024.33 1024.56 1024.66 1024.79 1024.95 1025.18 1025.38 1025.56 1025.69 1025.85 1026.02 1026.09 1026.16 1026.26 1026.39 1026.50 1026.64 1026.81 1026.94 1026.94 1026.89
1015.11 1015.14 1014.84 1014.63 1014.25 1014.29 1015.01 1015.31 1015.35 1016.23 1017.12 1017.63 1018.12 1018.42 1018.91 1019.43 1019.69 1020.02 1020.62 1021.22 1021.77 1022.11 1022.21 1022.33 1022.88 1023.25 1023.54 1023.97 1024.42 1024.65 1024.85 1025.04 1025.18 1025.21 1025.33 1025.53 1025.67 1025.86 1026.08 1026.21 1026.32 1026.44 1026.52 1026.67 1026.75 1026.89 1027.04 1027.04 1026.92
1015.04 1014.73 1014.50 1014.59 1014.58 1014.54 1015.03 1015.34 1015.75 1016.24 1016.52 1016.85 1017.74 1018.13 1018.71 1019.38 1019.48 1019.88 1020.23 1020.91 1021.45 1021.88 1022.02 1022.09 1022.28 1022.80 1023.27 1023.67 1024.12 1024.35 1024.69 1024.97 1025.21 1025.23 1025.36 1025.63 1025.90 1026.11 1026.18 1026.27 1026.38 1026.47 1026.55 1026.73 1026.79 1026.90 1026.83 1026.78 1026.78
1015.16 1014.81 1014.65 1014.70 1014.89 1014.70 1014.93 1015.51 1016.10 1016.68 1016.59 1017.01 1017.82 1018.50 1018.90 1019.42 1019.54 1019.70 1019.87 1020.26 1020.80 1021.37 1021.75 1021.98 1021.99 1022.28 1022.78 1023.10 1023.60 1024.00 1024.20 1024.59 1024.83 1025.11 1025.25 1025.44 1025.76 1025.92 1026.09 1026.25 1026.38 1026.47 1026.54 1026.64 1026.76 1026.79 1026.72 1026.64 1026.62
1014.94 1015.00 1014.89 1014.88 1015.20 1015.14 1015.33 1015.84 1016.01 1017.04 1016.95 1017.59 1018.16 1018.65 1018.96 1019.13 1019.36 1019.72 1019.80 1019.99 1020.40 1020.85 1021.32 1021.78 1022.11 1022.29 1022.70 1022.85 1023.16 1023.44 1023.78 1024.18 1024.59 1024.97 1025.14 1025.30 1025.61 1025.82 1025.99 1026.18 1026.28 1026.32 1026.34 1026.46 1026.54 1026.58 1026.68 1026.68 1026.64
1015.18 1015.44 1015.58 1015.34 1015.46 1015.58 1015.61 1016.42 1016.39 1016.73 1017.24 1017.86 1018.35 1018.61 1018.91 1018.91 1019.20 1019.32 1019.33 1019.54 1019.76 1020.27 1020.86 1021.29 1021.87 1022.11 1022.54 1022.82 1022.96 1023.35 1023.67 1023.94 1024.25 1024.64 1024.90 1025.16 1025.49 1025.80 1025.96 1026.19 1026.30 1026.30 1026.29 1026.39 1026.61 1026.70 1026.71 1026.74 1026.70
1015.52 1015.77 1016.33 1015.80 1015.71 1015.91 1016.16 1016.48 1016.71 1016.79 1017.33 1018.00 1018.26 1018.46 1018.76 1018.66 1018.78 1018.93 1018.90 1018.97 1019.28 1019.74 1020.41 1021.03 1021.14 1021.83 1022.24 1022.48 1023.03 1023.38 1023.59 1023.82 1024.14 1024.55 1024.84 1025.09 1025.29 1025.59 1025.88 1026.07 1026.19 1026.17 1026.38 1026.59 1026.76 1026.89 1026.95 1027.08 1026.85
1015.93 1016.22 1016.35 1016.34 1016.05 1016.14 1016.38 1016.69 1016.80 1016.93 1017.54 1018.08 1018.01 1018.49 1018.58 1018.44 1018.81 1018.70 1018.66 1018.80 1019.13 1019.37 1019.93 1020.61 1021.11 1021.67 1022.09 1022.43 1022.95 1023.39 1023.66 1023.87 1024.15 1024.47 1024.78 1024.98 1025.14 1025.29 1025.66 1025.97 1026.03 1026.06 1026.26 1026.42 1026.59 1026.78 1026.96 1026.95 1026.81
1016.18 1016.50 1016.47 1016.33 1016.45 1016.60 1016.66 1016.82 1017.12 1016.99 1017.61 1017.82 1017.93 1018.27 1018.53 1018.52 1018.74 1018.74 1018.70 1018.77 1018.88 1019.21 1019.55 1020.06 1020.83 1021.38 1021.93 1022.47 1022.87 1023.39 1023.68 1023.92 1024.09 1024.31 1024.53 1024.66 1024.91 1025.19 1025.43 1025.62 1025.83 1026.01 1026.16 1026.23 1026.40 1026.56 1026.60 1026.68 1026.63
1015.89 1016.23 1016.54 1016.67 1016.42 1016.72 1016.73 1017.03 1017.02 1016.97 1017.66 1017.64 1018.07 1018.22 1018.29 1019.01 1019.11 1019.17 1019.25 1019.11 1019.30 1019.57 1019.68 1019.99 1020.61 1021.12 1021.73 1022.44 1022.87 1023.40 1023.62 1023.89 1024.06 1024.25 1024.40 1024.62 1024.79 1025.03 1025.27 1025.40 1025.46 1025.60 1025.88 1025.97 1026.08 1026.30 1026.50 1026.46 1026.39
1015.98 1016.24 1016.84 1017.25 1016.84 1017.14 1017.25 1017.33 1017.28 1017.22 1017.31 1017.38 1017.73 1018.19 1018.70 1019.11 1019.18 1019.50 1019.44 1019.54 1019.76 1019.90 1019.95 1020.10 1020.44 1020.90 1021.39 1021.88 1022.31 1022.89 1023.34 1023.66 1023.76 1024.01 1024.17 1024.27 1024.52 1024.85 1025.08 1025.17 1025.30 1025.45 1025.63 1025.75 1025.92 1026.09 1026.19 1026.21 1026.09
1015.71 1016.03 1016.93 1016.99 1017.43 1017.88 1017.74 1018.13 1017.80 1017.39 1017.43 1017.68 1017.83 1018.19 1018.89 1019.35 1019.64 1020.10 1020.19 1020.36 1020.20 1020.31 1020.31 1020.08 1020.27 1020.69 1021.17 1021.46 1022.06 1022.67 1023.33 1023.61 1023.88 1024.04 1024.10 1024.09 1024.27 1024.43 1024.69 1024.84 1024.92 1025.01 1025.18 1025.34 1025.49 1025.69 1025.86 1025.95 1025.84
1015.23 1015.34 1016.10 1016.96 1017.83 1018.54 1018.12 1018.62 1018.06 1017.52 1017.75 1018.05 1018.49 1018.69 1019.29 1019.74 1020.19 1020.56 1020.98 1020.90 1020.86 1020.75 1020.55 1020.33 1020.21 1020.43 1020.89 1021.14 1021.96 1022.41 1023.06 1023.47 1023.73 1023.98 1023.85 1024.05 1024.01 1024.21 1024.48 1024.66 1024.71 1024.89 1025.09 1025.17 1025.20 1025.20 1025.41 1025.56 1025.42
1014.99 1015.23 1016.28 1017.28 1018.27 1018.79 1018.95 1019.37 1018.00 1017.81 1018.34 1018.44 1018.61 1019.15 1019.73 1020.34 1020.55 1020.87 1021.07 1021.29 1021.43 1021.14 1020.97 1020.79 1020.59 1020.75 1021.06 1021.25 1021.84 1022.40 1023.04 1023.47 1023.91 1024.16 1024.46 1024.57 1024.61 1024.95 1025.16 1025.11 1025.02 1025.04 1024.97 1025.04 1025.17 1025.27 1025.33 1025.48 1025.54
1014.85 1015.70 1017.02 1018.24 1019.16 1019.77 1018.88 1019.42 1018.16 1017.75 1017.07 1018.04 1018.75 1019.46 1020.09 1020.90 1021.25 1021.55 1021.59 1021.51 1021.68 1021.70 1021.41 1021.27 1021.33 1021.62 1021.58 1021.76 1022.25 1022.78 1023.23 1023.99 1024.37 1024.50 1024.98 1025.41 1025.51 1025.80 1025.78 1025.90 1025.93 1025.79 1025.79 1025.56 1025.46 1025.53 1025.57 1025.69 1025.65
1014.56 1016.16 1018.44 1019.97 1020.55 1019.93 1019.53 1019.61 1017.52 1016.53 1016.45 1016.83 1018.38 1019.62 1020.43 1020.97 1021.42 1022.17 1022.25 1022.25 1022.12 1022.23 1022.07 1021.82 1021.78 1022.46 1022.51 1022.58 1023.10 1023.55 1024.05 1024.44 1025.01 1025.66 1026.05 1026.08 1026.33 1026.53 1026.64 1026.46 1026.55 1026.39 1026.31 1026.17 1026.06 1025.92 1025.86 1025.72 1025.75
1014.92 1015.53 1017.50 1018.91 1020.47 1020.45 1019.87 1018.78 1016.80 1016.34 1016.31 1016.63 1017.80 1019.16 1020.27 1021.15 1021.59 1022.04 1022.51 1022.75 1022.63 1022.79 1022.79 1022.50 1022.34 1022.80 1023.27 1023.52 1024.11 1024.45 1024.97 1025.52 1025.88 1026.22 1026.64 1026.90 1026.99 1027.08 1027.04 1026.86 1026.85 1026.75 1026.65 1026.59 1026.54 1026.39 1026.28 1026.10 1025.99
1015.05 1015.66 1016.28 1018.45 1020.74 1020.65 1019.27 1018.19 1016.75 1016.78 1017.17 1017.67 1018.36 1019.42 1020.32 1021.17 1021.73 1022.08 1022.58 1022.87 1022.98 1023.17 1023.34 1023.38 1023.27 1023.44 1023.71 1024.16 1024.86 1025.43 1025.84 1026.14 1026.60 1026.84 1026.99 1027.30 1027.32 1027.16 1027.39 1027.28 1027.26 1027.32 1027.18 1027.00 1026.87 1026.82 1026.63 1026.38 1026.27
1014.04 1014.73 1016.40 1017.68 1019.69 1020.28 1019.05 1018.09 1016.60 1016.89 1017.16 1017.88 1018.61 1019.43 1020.44 1021.18 1021.88 1022.27 1022.71 1023.17 1023.36 1023.62 1023.65 1023.97 1023.89 1024.16 1024.51 1024.91 1025.32 1026.02 1026.49 1026.89 1027.10 1027.21 1027.57 1027.87 1027.90 1027.68 1027.54 1027.60 1027.60 1027.59 1027.52 1027.36 1027.27 1027.18 1026.82 1026.72 1026.39
1014.44 1014.66 1015.45 1016.54 1017.87 1018.40 1018.67 1016.97 1014.88 1014.90 1015.71 1016.85 1017.92 1019.02 1020.19 1020.83 1021.72 1022.24 1022.96 1023.55 1023.58 1023.80 1024.12 1024.57 1024.64 1024.73 1025.24 1025.67 1026.12 1026.47 1026.94 1027.43 1027.59 1027.86 1027.96 1028.19 1028.26 1028.25 1028.09 1028.01 1027.85 1027.78 1027.68 1027.46 1027.38 1027.19 1026.94 1026.76 1026.61
1013.91 1014.08 1014.61 1015.87 1017.49 1017.68 1017.56 1015.65 1014.28 1014.47 1015.10 1016.07 1017.42 1018.55 1019.58 1020.63 1021.55 1022.19 1022.71 1023.48 1023.98 1024.14 1024.53 1024.98 1024.98 1025.06 1025.64 1026.10 1026.60 1026.97 1027.47 1027.80 1027.97 1028.24 1028.43 1028.24 1028.31 1028.18 1028.27 1028.18 1028.15 1027.97 1027.76 1027.57 1027.46 1027.27 1027.00 1026.90 1026.74
Wind_Speed
8 8 2 4 4 5 2 2 5 5 4 1 2 11 10 3 3 5 5 15 16 12 7 7 11 12 14 12 13 14 14 14 15 15 14 15 17 18 17 16 15 17 18 18 18 19 20 18 16
5 6 4 2 5 2 5 3 8 6 4 6 9 6 7 4 3 8 8 15 17 13 8 7 10 11 11 11 12 14 15 14 15 14 13 15 15 17 16 16 15 15 16 18 17 18 18 18 17
4 3 4 4 2 2 4 4 7 4 5 2 4 6 5 4 3 5 14 17 16 12 10 9 11 11 11 10 14 15 15 13 13 13 13 15 16 15 17 15 14 14 18 17 17 17 16 16 15
3 5 5 4 2 6 6 6 8 5 5 4 6 8 5 6 6 7 15 13 14 11 10 10 12 12 12 11 14 15 15 14 12 12 13 14 14 17 16 14 13 13 16 16 15 15 15 14 12
4 3 2 1 1 1 4 9 7 6 6 2 6 3 5 4 11 14 15 15 12 10 8 9 12 11 12 13 13 14 14 14 12 12 14 13 13 14 13 13 12 15 16 15 14 14 13 12 11
3 3 3 3 3 2 4 7 9 5 6 7 7 7 2 8 7 11 14 15 13 11 8 7 10 10 11 11 13 14 15 13 11 12 13 12 13 12 10 12 13 16 15 14 13 12 11 11 10
4 4 4 1 4 3 3 3 7 7 5 2 10 6 6 7 7 7 12 13 14 13 8 6 6 9 11 10 11 13 13 11 11 12 13 12 11 11 13 9 13 15 14 13 12 11 10 9 8
4 4 3 2 5 4 6 3 4 8 2 1 9 7 7 10 11 9 11 11 12 11 9 7 6 6 6 6 11 12 12 11 11 11 10 9 9 10 10 8 9 13 13 13 12 9 8 8 6
2 4 2 5 7 5 5 4 3 3 7 5 5 7 13 15 11 12 12 6 9 8 8 8 7 6 6 6 7 9 10 10 9 7 8 7 4 6 7 7 10 11 11 9 9 7 5 5 4
3 5 5 4 6 6 7 6 6 6 5 6 6 11 16 15 10 13 15 9 6 7 10 8 7 7 7 6 5 5 6 4 5 5 5 3 5 4 5 6 8 9 9 8 7 5 1 1 2
4 5 4 3 3 11 9 5 4 10 2 7 16 15 12 11 8 10 11 14 10 8 8 10 8 9 7 6 4 3 3 3 3 6 5 5 4 4 3 3 2 3 5 2 3 0 0 2 4
3 5 1 1 4 6 8 7 6 4 3 12 14 16 11 13 13 12 10 13 13 10 8 7 7 9 8 5 5 5 4 3 3 4 5 4 3 3 3 3 4 3 3 3 3 1 3 2 1
3 2 3 2 4 7 7 4 5 5 5 10 12 13 11 9 9 8 9 11 13 13 11 10 7 7 8 8 6 6 5 4 5 4 4 4 3 3 3 3 3 3 3 3 3 3 3 2 3
6 5 5 4 1 4 8 2 3 2 6 11 11 11 10 11 10 7 8 10 13 13 13 12 9 7 4 4 6 4 4 4 4 4 5 5 3 3 2 2 3 2 3 3 3 4 3 4 3
6 7 2 4 3 3 6 2 3 6 7 10 10 9 10 10 9 10 10 8 12 12 14 14 12 9 7 6 5 4 4 4 4 4 5 6 4 3 3 2 2 3 2 3 1 2 2 2 3
6 6 4 3 6 1 2 5 4 7 10 10 9 7 9 8 9 9 9 8 10 10 14 14 11 11 8 7 4 3 3 3 2 3 3 4 5 4 2 3 3 3 1 1 0 1 3 4 4
1 5 4 2 4 3 3 3 5 7 7 9 9 9 8 7 6 7 8 8 9 9 9 11 11 12 9 7 5 4 4 4 4 3 3 3 4 4 4 2 3 2 2 2 2 1 1 3 4
5 3 3 6 7 2 5 2 4 5 7 9 9 9 8 8 6 2 4 4 8 8 8 9 10 11 8 5 5 3 3 3 3 4 4 5 4 4 3 3 4 3 3 3 1 3 2 3 4
6 6 7 1 4 4 8 6 8 7 5 7 7 9 9 8 4 4 5 6 6 5 5 9 10 10 8 4 4 3 3 3 2 3 5 5 4 5 4 3 4 3 4 4 4 3 4 3 2
4 7 4 2 2 3 5 8 5 7 6 6 9 7 8 7 6 4 5 6 4 1 2 3 8 12 8 6 4 3 3 2 2 3 4 5 5 5 4 5 4 4 3 4 4 4 2 3 3
6 7 6 8 3 2 5 6 5 5 3 3 5 6 5 9 8 5 6 5 4 3 2 1 5 10 9 9 5 4 3 2 2 2 2 4 5 6 6 6 5 5 4 4 4 4 5 5 3
8 6 7 12 6 5 4 5 7 7 6 5 5 6 6 7 6 6 5 5 3 2 2 2 4 8 9 11 6 8 4 3 3 2 1 2 3 3 3 4 4 4 3 4 4 3 5 3 5
6 8 9 5 5 5 3 3 8 8 5 9 8 7 7 7 8 8 7 5 3 3 2 4 7 8 6 7 6 6 6 3 3 4 5 5 6 10 9 9 8 5 3 3 4 4 4 2 4
8 8 8 5 4 1 5 7 6 7 13 6 6 8 8 7 7 6 6 6 5 5 6 6 9 8 9 9 9 8 9 6 5 6 6 5 5 6 8 7 6 6 7 6 5 4 5 4 4
8 7 3 2 1 7 2 4 9 7 7 10 13 10 9 8 8 7 7 6 6 7 6 8 12 9 9 12 11 10 10 11 9 7 5 6 4 4 6 6 6 4 5 5 5 5 5 4 4
5 8 7 7 5 4 2 7 6 3 2 8 12 11 10 8 8 9 7 6 7 7 7 9 11 11 11 12 11 10 10 7 6 7 5 4 4 4 5 6 6 6 6 6 6 4 4 5 5
6 4 5 9 3 4 5 5 5 3 5 8 11 10 9 9 8 9 7 7 7 7 7 8 11 11 11 11 11 10 9 9 7 7 6 4 4 4 6 6 6 6 7 6 6 4 5 5 5
6 9 3 3 6 4 4 4 7 8 13 10 12 11 10 9 9 8 7 7 6 7 7 8 8 10 9 10 9 8 8 7 7 6 7 7 5 6 6 6 6 6 6 6 6 5 5 5 4
3 3 2 6 5 7 2 8 8 18 17 18 15 14 12 12 11 9 8 6 7 7 7 7 8 10 9 9 8 9 7 7 7 7 6 6 5 6 6 6 6 6 6 5 5 5 5 6 6
1 7 6 6 6 1 4 8 2 6 14 17 15 13 12 12 11 10 9 8 8 8 7 7 7 10 8 8 9 9 7 6 7 6 5 5 5 5 5 5 5 5 5 5 6 6 6 6 8
Wind_Direction
313 301 120 37 48 63 234 348 129 88 53 39 70 88 116 40 25 145 117 121 125 120 116 102 94 97 100 117 119 116 107 102 97 90 89 91 97 87 87 82 88 92 86 86 83 83 83 78 80
318 314 44 72 88 62 277 110 88 98 136 94 78 122 59 50 36 113 98 128 122 121 110 96 96 100 100 121 120 112 101 100 98 98 98 96 100 94 88 83 81 79 90 87 83 80 76 65 59
286 183 78 98 124 177 175 148 131 120 97 130 95 72 93 120 117 119 131 126 117 118 115 108 99 96 94 113 119 109 101 102 105 100 90 82 82 98 99 91 87 78 86 85 84 83 78 71 62
339 8 9 93 261 290 126 178 131 101 24 47 107 73 56 192 142 129 127 123 113 116 119 116 108 101 89 120 113 110 105 105 109 105 101 88 78 79 95 97 94 84 88 82 79 78 76 69 62
37 64 43 354 32 298 82 151 135 132 151 94 115 100 80 27 115 119 113 112 117 116 117 115 107 100 88 111 117 112 110 107 111 107 100 92 87 82 82 104 102 94 90 85 81 78 76 72 60
16 95 52 264 206 103 84 172 128 116 150 119 93 102 85 136 112 127 127 124 123 118 107 105 107 102 94 103 118 113 109 105 108 107 105 100 94 86 76 116 99 94 94 88 86 83 78 72 60
116 88 218 138 245 110 174 123 127 135 111 97 171 95 153 136 158 138 135 130 127 120 114 112 114 115 105 102 113 107 99 108 107 101 97 93 85 81 66 68 103 99 95 91 85 82 79 70 49
112 103 320 224 211 176 189 114 98 102 199 113 138 158 176 179 153 123 128 125 123 126 131 134 125 113 112 110 107 110 118 118 109 104 107 103 102 88 74 52 85 85 87 85 87 81 79 78 54
40 69 279 260 169 182 166 124 3 74 94 47 357 159 147 153 143 120 124 110 124 134 141 144 148 145 131 122 125 123 125 120 120 127 131 122 108 92 86 73 79 92 97 98 96 90 73 77 57
103 117 233 264 153 172 155 127 132 93 92 28 56 92 131 145 148 147 144 145 148 150 152 161 160 156 147 137 133 128 134 139 140 141 148 112 127 137 109 92 90 99 98 96 95 93 74 348 334
190 183 251 336 323 142 145 134 130 128 154 183 148 143 148 154 153 157 144 154 162 163 160 162 162 159 147 143 150 148 155 149 152 165 170 155 124 122 134 126 114 126 115 106 104 89 208 248 259
161 243 133 319 337 119 145 150 130 152 165 162 162 157 151 165 169 169 163 157 156 163 163 171 173 154 152 152 164 172 162 171 166 182 155 128 129 146 161 167 176 180 169 171 174 206 254 253 237
211 187 101 83 16 123 113 111 138 129 90 135 138 154 154 170 179 179 174 162 162 166 170 171 177 165 157 160 163 170 166 158 163 165 158 145 156 175 159 194 183 192 167 180 190 201 225 255 281
226 181 148 128 13 63 119 124 119 228 125 114 144 166 170 175 185 183 183 176 169 169 169 167 168 188 169 176 171 163 165 158 157 161 175 167 163 173 174 176 181 199 187 189 197 203 216 236 244
148 105 102 140 185 132 123 54 191 172 148 142 155 178 182 188 188 193 190 170 173 171 166 168 173 180 179 176 164 153 158 133 151 152 174 181 160 188 180 195 214 226 216 212 234 283 281 270 270
143 88 138 239 149 208 110 214 225 187 148 171 180 192 187 190 193 195 189 175 173 160 163 173 171 175 176 153 181 184 181 163 144 126 126 175 185 172 182 186 218 228 204 179 183 271 295 282 263
174 173 166 158 202 151 160 189 217 194 175 182 185 191 190 182 194 196 189 176 169 167 161 167 166 169 160 158 163 169 166 156 174 179 193 201 177 201 185 209 241 201 177 174 189 237 236 279 289
164 169 169 162 202 187 153 244 197 206 182 199 187 186 178 172 189 120 128 161 166 174 171 154 165 162 154 144 142 162 167 179 174 186 194 204 193 199 221 232 241 192 201 232 217 236 231 243 259
147 199 168 308 183 132 192 185 211 208 205 171 181 165 169 156 140 102 77 76 78 81 171 156 154 162 150 146 142 171 184 172 180 191 200 201 196 201 218 230 241 216 220 225 217 213 238 276 225
171 194 164 4 41 123 177 230 220 194 216 187 170 169 161 150 134 93 81 55 35 83 75 126 170 163 161 155 156 146 152 164 167 187 209 203 196 201 215 218 228 228 235 237 237 210 242 245 203
186 182 187 161 143 1 108 313 218 208 143 130 113 134 146 163 146 118 82 51 43 35 16 213 160 172 166 162 143 96 95 81 128 200 215 217 209 208 210 218 217 221 210 239 230 217 212 255 255
213 174 144 136 119 199 145 254 247 199 187 197 191 157 147 118 110 105 95 69 50 312 245 103 123 153 172 161 155 142 154 145 176 128 69 308 261 254 245 252 242 238 225 242 245 229 235 231 258
193 134 144 131 120 112 189 105 257 138 195 219 209 193 174 145 135 128 123 108 39 33 97 108 96 86 124 143 144 140 145 143 92 100 84 57 58 50 35 34 28 14 0 339 338 324 307 273 277
138 90 54 62 76 292 217 163 261 190 203 164 180 166 146 138 118 114 113 101 77 44 67 77 80 66 74 82 88 101 104 99 83 67 69 51 54 40 35 28 27 26 21 11 2 350 350 341 322
114 104 58 34 334 218 1 183 241 223 215 180 170 159 153 144 131 128 119 107 86 76 70 78 86 69 72 80 78 83 88 82 80 77 74 61 43 32 21 26 25 23 17 16 11 3 351 332 321
175 150 152 170 187 225 332 225 249 293 283 145 148 151 150 151 145 136 129 115 101 86 75 84 90 86 78 82 79 78 77 83 80 81 77 64 63 50 27 30 28 21 18 13 9 2 351 351 343
219 181 166 101 30 72 215 282 309 71 104 128 145 149 151 148 146 133 124 119 111 101 90 92 94 88 83 86 89 81 83 86 86 75 77 73 54 43 33 32 27 15 14 13 8 5 348 347 344
171 156 102 11 134 238 275 252 226 198 191 169 165 160 159 146 135 136 133 129 113 106 101 91 91 98 96 92 92 92 90 86 84 77 68 56 41 37 38 26 23 14 11 5 1 349 337 350 333
150 188 157 125 143 161 168 255 219 197 183 179 172 168 162 152 150 142 137 132 121 109 104 103 101 104 97 99 99 96 89 81 77 74 68 56 42 26 30 22 18 9 356 357 351 340 337 346 334
118 203 155 164 214 152 158 264 193 198 182 172 171 163 156 155 152 148 144 139 133 125 119 121 117 112 112 108 101 94 93 87 81 74 63 56 46 34 27 18 8 358 352 347 347 334 331 343 334